Bei Facebook empfehlenBei Twitter postenGoogle plusPinterest

Das Wetter im Erzgebirge am 16.01.2017

Wetter und Klima am 16.01.2017 Holzhau im Erzgebirge (630m ü.NN)
Letzte gemessene Temperatur und Uhrzeit der Messung23:45:00 Uhr-7.30 °C
Temperatur (Maximum / Höchstwert) und Uhrzeit der Messung13:45:00 Uhr-3.70 °C
Temperatur (Minimum / Tiefstwert) und Uhrzeit der Messung20:15:00-7.70 °C
Errechneter Absolutwert der Temperaturschwankungen zwischen Tmin und Tmax des Tages4.00 K
Errechnete Tagesmitteltemperatur-5.36250 °C
Gesamt - Niederschlag des Tages (in flüssiger Form)0.00 Liter / m²
Luftdruck (Maximum / Höchstwert) und Zeitpunkt der Messung23:45:00 Uhr1022.30 hPa
Luftdruck (Minimum / Tiefstwert) und Zeitpunkt der Messung00:15:00 Uhr1012.50 hPa
Errechneter Absolutwert der Luftdruckschwankungen des Tages9.80 hPa
Höchste gemessene Windgeschwindigkeit und Uhrzeit der Messung23:45:00 Uhr0.00 km/h
Errechnete Windhäufigkeit in Relation zu den Messwerten des Tages0.00000 %
Niedrigste Windkühle (Windchill) und Zeitpunkt der Messung20:15:00 Uhr-7.70 °C
Taupunkt (Maximum / Höchstwert) und Uhrzeit der Messung14:15:00 Uhr-5.30 °C
Taupunkt (Minimum / Tiefstwert) und Uhrzeit der Messung20:15:00-9.20 °C
Anzahl der automatisch eingelesenen Messwerte 96

Detaillierte Wetter- und Klima- Messwerte für den 16.01.2017 in Holzhau im Erzgebirge (630m ü.NN)
ZeitTemperaturLuftdruckRel. LuftfeuchteWindWindrichtungWindchillTaupunktNiederschlag l/m²
23:45:00-7.30 °C1022.30 hPa92.00 %-8.50 °C 
23:30:00-7.40 °C1022.30 hPa92.00 %-8.60 °C 
23:15:00-7.30 °C1022.20 hPa92.00 %-8.50 °C 
23:00:00-7.30 °C1022.20 hPa92.00 %-8.50 °C 
22:45:00-7.30 °C1022.30 hPa92.00 %-8.50 °C 
22:30:00-7.30 °C1022.20 hPa92.00 %-8.50 °C 
22:15:00-7.30 °C1022.20 hPa92.00 %-8.50 °C 
22:00:00-7.40 °C1022.10 hPa91.00 %-8.80 °C 
21:45:00-7.40 °C1022.00 hPa91.00 %-8.80 °C 
21:30:00-7.50 °C1021.50 hPa91.00 %-8.90 °C 
21:15:00-7.60 °C1021.50 hPa91.00 %-9.00 °C 
21:00:00-7.60 °C1021.20 hPa90.00 %-9.10 °C 
20:45:00-7.60 °C1021.20 hPa90.00 %-9.10 °C 
20:30:00-7.60 °C1021.00 hPa90.00 %-9.10 °C 
20:15:00-7.70 °C1020.70 hPa90.00 %-9.20 °C 
20:00:00-7.70 °C1020.70 hPa90.00 %-9.20 °C 
19:45:00-7.70 °C1020.60 hPa90.00 %-9.20 °C 
19:30:00-7.60 °C1020.40 hPa90.00 %-9.10 °C 
19:15:00-7.50 °C1020.50 hPa90.00 %-9.00 °C 
19:00:00-7.40 °C1020.40 hPa89.00 %-9.10 °C 
18:45:00-7.20 °C1020.10 hPa89.00 %-8.90 °C 
18:30:00-7.10 °C1020.00 hPa89.00 %-8.80 °C 
18:15:00-6.90 °C1019.70 hPa89.00 %-8.60 °C 
18:00:00-6.80 °C1019.70 hPa89.00 %-8.50 °C 
17:45:00-6.60 °C1019.50 hPa89.00 %-8.30 °C 
17:30:00-6.50 °C1019.50 hPa89.00 %-8.20 °C 
17:15:00-6.40 °C1019.50 hPa89.00 %-8.10 °C 
17:00:00-6.10 °C1019.30 hPa89.00 %-7.80 °C 
16:45:00-5.90 °C1019.20 hPa89.00 %-7.60 °C 
16:30:00-5.80 °C1019.00 hPa88.00 %-7.70 °C 
16:15:00-5.60 °C1018.90 hPa88.00 %-7.50 °C 
16:00:00-5.30 °C1018.80 hPa88.00 %-7.20 °C 
15:45:00-4.80 °C1018.60 hPa89.00 %-6.50 °C 
15:30:00-4.70 °C1018.30 hPa88.00 %-6.60 °C 
15:15:00-4.40 °C1018.00 hPa89.00 %-6.10 °C 
15:00:00-4.20 °C1017.90 hPa89.00 %-5.90 °C 
14:45:00-4.10 °C1017.90 hPa90.00 %-5.70 °C 
14:30:00-4.00 °C1017.80 hPa90.00 %-5.60 °C 
14:15:00-3.90 °C1017.50 hPa91.00 %-5.30 °C 
14:00:00-3.80 °C1017.40 hPa90.00 %-5.40 °C 
13:45:00-3.70 °C1017.40 hPa90.00 %-5.30 °C 
13:30:00-3.80 °C1017.40 hPa89.00 %-5.50 °C 
13:15:00-3.80 °C1017.20 hPa89.00 %-5.50 °C 
13:00:00-3.70 °C1017.20 hPa90.00 %-5.30 °C 
12:45:00-3.70 °C1017.10 hPa90.00 %-5.30 °C 
12:30:00-3.80 °C1017.10 hPa90.00 %-5.40 °C 
12:15:00-3.90 °C1017.00 hPa91.00 %-5.30 °C 
12:00:00-4.10 °C1017.00 hPa91.00 %-5.50 °C 
11:45:00-4.10 °C1017.10 hPa91.00 %-5.50 °C 
11:30:00-4.10 °C1016.90 hPa91.00 %-5.50 °C 
11:15:00-4.20 °C1017.00 hPa91.00 %-5.60 °C 
11:00:00-4.20 °C1016.90 hPa92.00 %-5.40 °C 
10:45:00-4.20 °C1016.90 hPa92.00 %-5.40 °C 
10:30:00-4.40 °C1016.60 hPa92.00 %-5.60 °C 
10:15:00-4.70 °C1016.70 hPa92.00 %-5.90 °C 
10:00:00-4.70 °C1016.70 hPa92.00 %-5.90 °C 
09:45:00-4.80 °C1016.50 hPa92.00 %-6.00 °C 
09:30:00-4.70 °C1016.50 hPa92.00 %-5.90 °C 
09:15:00-4.80 °C1016.20 hPa92.00 %-6.00 °C 
09:00:00-4.90 °C1016.00 hPa92.00 %-6.10 °C 
08:45:00-5.10 °C1015.70 hPa92.00 %-6.30 °C 
08:30:00-5.10 °C1015.70 hPa92.00 %-6.30 °C 
08:15:00-5.10 °C1015.60 hPa92.00 %-6.30 °C 
08:00:00-5.10 °C1015.30 hPa92.00 %-6.30 °C 
07:45:00-5.10 °C1015.10 hPa92.00 %-6.30 °C 
07:30:00-5.10 °C1015.00 hPa92.00 %-6.30 °C 
07:15:00-5.10 °C1014.90 hPa92.00 %-6.30 °C 
07:00:00-5.00 °C1014.80 hPa92.00 %-6.20 °C 
06:45:00-5.00 °C1014.70 hPa92.00 %-6.20 °C 
06:30:00-5.00 °C1014.30 hPa92.00 %-6.20 °C 
06:15:00-4.90 °C1014.30 hPa92.00 %-6.10 °C 
06:00:00-4.90 °C1014.30 hPa92.00 %-6.10 °C 
05:45:00-4.90 °C1014.20 hPa92.00 %-6.10 °C 
05:30:00-4.80 °C1014.00 hPa92.00 %-6.00 °C 
05:15:00-4.80 °C1013.90 hPa92.00 %-6.00 °C 
05:00:00-4.70 °C1013.80 hPa92.00 %-5.90 °C 
04:45:00-4.70 °C1013.80 hPa92.00 %-5.90 °C 
04:30:00-4.80 °C1013.80 hPa92.00 %-6.00 °C 
04:15:00-4.80 °C1013.60 hPa92.00 %-6.00 °C 
04:00:00-4.80 °C1013.70 hPa92.00 %-6.00 °C 
03:45:00-4.80 °C1013.50 hPa92.00 %-6.00 °C 
03:30:00-4.80 °C1013.50 hPa92.00 %-6.00 °C 
03:15:00-4.80 °C1013.40 hPa92.00 %-6.00 °C 
03:00:00-4.70 °C1013.50 hPa92.00 %-5.90 °C 
02:45:00-4.70 °C1013.30 hPa92.00 %-5.90 °C 
02:30:00-4.70 °C1013.10 hPa92.00 %-5.90 °C 
02:15:00-4.60 °C1013.30 hPa92.00 %-5.80 °C 
02:00:00-4.60 °C1013.10 hPa92.00 %-5.80 °C 
01:45:00-4.50 °C1013.00 hPa92.00 %-5.70 °C 
01:30:00-4.50 °C1013.00 hPa92.00 %-5.70 °C 
01:15:00-4.40 °C1013.00 hPa92.00 %-5.60 °C 
01:00:00-4.20 °C1012.90 hPa92.00 %-5.40 °C 
00:45:00-4.20 °C1012.80 hPa92.00 %-5.40 °C 
00:30:00-4.20 °C1012.60 hPa92.00 %-5.40 °C 
00:15:00-4.20 °C1012.50 hPa92.00 %-5.40 °C 
00:00:00-4.20 °C1012.60 hPa92.00 %-5.40 °C 

Permanenter Link zu dieser Seite: Wetter im Erzgebirge am 16.01.2017
Performance-Info: Die Erstellung der Seite / Statistik(en) / Tabelle(n) erforderte 5 Datenbankserver-Abfrage(n) und dauerte 117 Millisekunden. (Dieser Messwert ist von der Gesamt-Auslastung des Servers abhängig.)
Erzgebirge - Wetter | Erzgebirge - Wetter (Mobilgeräte) | Komplette Klimadatenbank